Location: Presov
(49.0000°N, 21.2500°E)
Time: 05:49:18
(UTC+02:00)

Transit 2A Rocket - Pass Details

Date: 16 April 2021
Orbit: 594 x 909 km, 66.7° (Epoch: 07 May)

Event Time Altitude Azimuth Distance (km) Brightness Sun altitude
Rises 00:58:49 0° 325° (NW) 2,859 8.6 -30.7°
Reaches altitude 10° 01:01:02 10° 329° (NNW) 1,971 7.7 -30.6°
Enters shadow 01:03:31 33° 340° (NNW) 1,062 6.1 -30.5°
Maximum altitude 01:05:26 66° 52° (NE) 696 - -30.5°
Drops below altitude 10° 01:10:05 10° 135° (SE) 2,091 - -30.4°
Sets 01:12:30 0° 138° (SE) 3,050 - -30.3°
